Location: Killam
(52.7910°N, 111.8608°W)
Time: 08:58:55
(UTC+00:00)

Tiangong - Visible Passes

Search period start: 20 January 2026 00:00
Search period end: 30 January 2026 00:00
Orbit: 378 x 393 km, 41.5° (Epoch: 19 January)

Date Brightness Start Highest point End Pass type
(mag) Time Alt. Az. Time Alt. Az. Time Alt. Az.
20 Jan 0.9 14:08:20 10° S 14:09:08 11° S 14:09:56 10° SSE visible
21 Jan 0.8 14:45:00 10° SSW 14:45:59 11° S 14:47:00 10° SSE visible
22 Jan 0.7 13:45:46 10° SSW 13:46:51 11° S 13:47:56 10° SSE visible
23 Jan 0.8 12:48:03 10° SSE 12:48:03 10° SSE 12:48:26 10° SSE visible
24 Jan 0.6 13:23:36 10° SSW 13:24:26 11° S 13:25:21 10° SSE visible
